Miscellaneous Local Product
Issued by NWS Hastings, NE

Home | Current Version | Previous Version | Text Only | Print | Product List | Glossary On
Versions: 1 2 3 4 5 6 7 8 9 10 11 12 13 14 15 16 17 18 19 20 21 22 23 24 25 26 27 28 29 30 31 32 33 34 35 36 37 38 39 40 41 42 43 44 45 46 47 48 49 50
000
AXUS43 KGID 131702
MISGRI

GID CWA HOURLY WEATHER ROUNDUP
NATIONAL WEATHER SERVICE HASTINGS NE
1100 AM CST WED DEC 13 2017

NOTE: "FAIR" INDICATES FEW OR NO CLOUDS BELOW 12,000 FEET WITH NO
SIGNIFICANT WEATHER AND/OR OBSTRUCTIONS TO VISIBILITY.

...SOUTH CENTRAL NEBRASKA...

CITY           SKY/WX    TMP DP  RH WIND       PRES   REMARKS
GRAND ISLAND   SUNNY     50  24  36 NW30G40   29.91R
KEARNEY        SUNNY     51  22  31 NW25G36   29.93R
HASTINGS       SUNNY     52  22  30 NW33G44   29.92R
ORD            SUNNY     48  24  39 NW32G46   29.91R
YORK           SUNNY     50  25  37 NW29G37   29.85R
AURORA         SUNNY     50  24  35 NW31G39   29.90R
LEXINGTON      SUNNY     53  22  30 NW23G31   29.97R
HOLDREGE       SUNNY     51  25  35 NW17G32   29.94R
HEBRON         SUNNY     55  23  28 N21G29    29.89R

...NEBRASKA PANHANDLE...

CITY           SKY/WX    TMP DP  RH WIND       PRES   REMARKS
CHADRON        CLOUDY    44  17  33 NW25G36   30.09R
ALLIANCE       SUNNY     45  16  31 NW23G35   30.06R
SCOTTSBLUFF    SUNNY     45  15  30 W20       30.15R
SIDNEY         SUNNY     45  14  28 NW26      30.11S

...WESTERN AND NORTH CENTRAL NEBRASKA...

CITY           SKY/WX    TMP DP  RH WIND       PRES   REMARKS
VALENTINE      SUNNY     45  24  43 NW25G39   29.96S
AINSWORTH      SUNNY     43  25  49 NW31G38   29.95R
ONEILL         SUNNY     45  28  51 NW29G37   29.90R
BROKEN BOW     SUNNY     49  23  36 NW30G40   29.95R
IMPERIAL       SUNNY     50  15  24 NW23G29   30.07R
NORTH PLATTE   SUNNY     51  17  26 NW33G48   30.01R
MCCOOK         SUNNY     54  18  24 NW30G46   30.01R

...EASTERN NEBRASKA...

CITY           SKY/WX    TMP DP  RH WIND       PRES   REMARKS
NORFOLK        SUNNY     47  28  47 NW30G38   29.79R
SO SIOUX CITY  PTSUNNY   43  31  62 NW33G49   29.74R
TEKAMAH        SUNNY     50  29  44 NW30G48   29.76R
COLUMBUS       SUNNY     50  27  40 NW30G37   29.83R
ALBION         SUNNY     48  27  44 N30G40    29.86R
OMAHA EPPLEY   MOSUNNY   51  29  42 NW31G44   29.74R
OFFUTT AFB     SUNNY     51  28  40 NW23G44   29.75R
MILLARD        SUNNY     52  30  43 NW20G31   29.77R
LINCOLN        SUNNY     52  26  36 NW25G41   29.84R
NEBRASKA CITY  SUNNY     53  30  41 NW31G38   29.77R
BEATRICE       SUNNY     55  27  34 NW28G41   29.84S
FALLS CITY     SUNNY     56  29  35 NW24G41   29.77R

...NORTHERN KANSAS...

CITY           SKY/WX    TMP DP  RH WIND       PRES   REMARKS
GOODLAND       SUNNY     51  15  23 NW25G36   30.08R
HILL CITY      SUNNY     57  21  24 NW25G43   30.00S
NORTON         SUNNY     55  12  18 NW26G35   29.98S
PHILLIPSBURG   SUNNY     55  18  22 NW18G31   29.97R
SMITH CENTER   SUNNY     55  21  26 NW22G29   29.94R
HAYS           SUNNY     59  19  21 NW28G39   29.98S
RUSSELL        SUNNY     58  19  22 NW29G40   29.95R
CONCORDIA      SUNNY     57  22  25 NW28G40   29.89R
SALINA         SUNNY     61  23  23 NW25G32   29.91S
TOPEKA         SUNNY     58  26  29 NW15G21   29.80R



USA.gov is the U.S. government's official web portal to all federal, state and local government web resources and services.